contact:dominique.lefevre@mio.osupytheas.fr, maurice.libes@osupytheas.fr, didier.mallarino@osupytheas.fr
Project:EMSO http://www.emso-fr.org/EMSO-France
Depth: 2436.0 m
Title:EMSO Ligure Ouest : Data MII capteur AQUADOPP
Date,Latitude,Longitude,X_East,Y_North,Z_Up,Amplitude_X,Amplitude_Y,Amplitude_Z,Batterie,SoundSpeed,Heading,Pitch,Roll,Pressure,TIS,Speed,Direction
, degrees North, degrees East, m.s-1, m.s-1,m.s-1, 1, 1, 1, Volt, m.s-1, degree, degree, degree, dbar, degree_C, m.s-1, degree
2022-10-24T00:04:03,42.805,6.029,-0.033,-0.018,-0.028,101.0,102.0,100.0,13.4,1505.2,321.4,-0.8,1.8,2470.953,13.28,0.037,241.4
2022-10-24T00:07:03,42.805,6.029,-0.026,-0.004,-0.048,102.0,102.0,99.0,13.4,1505.2,330.6,-0.7,1.8,2470.991,13.28,0.026,261.3
2022-10-24T00:10:03,42.805,6.029,0.007,-0.014,-0.031,101.0,101.0,100.0,13.3,1505.2,321.6,-0.8,1.8,2470.959,13.28,0.015,153.4
2022-10-24T00:13:03,42.805,6.029,-0.027,0.005,-0.017,101.0,101.0,100.0,13.4,1505.2,320.3,-0.8,1.8,2470.99,13.29,0.027,280.5
2022-10-24T00:16:03,42.805,6.029,-0.014,-0.015,-0.007,102.0,100.0,99.0,13.3,1505.2,318.5,-0.8,1.8,2470.945,13.29,0.02,223.0
2022-10-24T00:19:03,42.805,6.029,-0.007,-0.002,-0.015,101.0,100.0,100.0,13.3,1505.2,318.8,-0.8,1.8,2470.993,13.29,0.007,254.1
2022-10-24T00:22:03,42.805,6.029,-0.029,-0.008,-0.032,101.0,101.0,100.0,13.4,1505.2,324.0,-0.8,1.8,2470.931,13.29,0.03,254.6
2022-10-24T00:25:03,42.805,6.029,-0.035,-0.004,-0.022,101.0,100.0,99.0,13.3,1505.2,330.4,-0.8,1.8,2470.955,13.29,0.035,263.5
2022-10-24T00:28:03,42.805,6.029,-0.016,0.0,-0.027,101.0,101.0,100.0,13.4,1505.2,317.5,-0.7,1.8,2470.953,13.29,0.016,270.0
2022-10-24T00:31:03,42.805,6.029,0.0,-0.019,-0.022,101.0,102.0,99.0,13.4,1505.2,323.5,-0.8,1.8,2470.95,13.29,0.019,180.0
2022-10-24T00:34:03,42.805,6.029,-0.024,-0.019,-0.006,100.0,102.0,99.0,13.4,1505.2,322.9,-0.8,1.8,2470.966,13.29,0.03,231.6
2022-10-24T00:37:03,42.805,6.029,-0.029,-0.018,-0.016,101.0,101.0,101.0,13.4,1505.2,318.2,-0.8,1.8,2470.919,13.29,0.034,238.2
2022-10-24T00:40:03,42.805,6.029,-0.004,0.003,-0.012,100.0,101.0,100.0,13.4,1505.2,318.2,-0.8,1.8,2470.925,13.29,0.005,306.9
2022-10-24T00:43:03,42.805,6.029,-0.025,0.0,-0.004,102.0,101.0,101.0,13.3,1505.2,321.2,-0.8,1.8,2470.924,13.29,0.025,270.0
2022-10-24T00:46:03,42.805,6.029,-0.055,-0.002,-0.028,101.0,101.0,100.0,13.4,1505.2,322.3,-0.7,1.8,2470.937,13.29,0.055,267.9
2022-10-24T00:49:03,42.805,6.029,-0.039,-0.01,-0.059,103.0,100.0,101.0,13.4,1505.2,327.6,-0.8,1.8,2470.9,13.29,0.04,255.6
2022-10-24T00:52:03,42.805,6.029,-0.02,0.007,-0.032,100.0,100.0,101.0,13.3,1505.2,321.8,-0.7,1.8,2470.936,13.29,0.021,289.3
2022-10-24T00:55:03,42.805,6.029,-0.017,-0.016,-0.027,101.0,99.0,101.0,13.4,1505.2,317.5,-0.8,1.8,2470.918,13.29,0.023,226.7
2022-10-24T00:58:03,42.805,6.029,-0.01,-0.002,-0.032,101.0,101.0,101.0,13.3,1505.2,317.1,-0.8,1.8,2470.915,13.29,0.01,258.7
2022-10-24T01:04:03,42.805,6.029,0.016,-0.002,-0.022,101.0,103.0,102.0,13.4,1505.2,315.8,-0.8,1.8,2470.98,13.28,0.016,97.1
2022-10-24T01:07:03,42.805,6.029,-0.026,-0.006,-0.036,101.0,101.0,101.0,13.4,1505.2,329.0,-0.8,1.8,2470.962,13.28,0.026,257.0
2022-10-24T01:10:03,42.805,6.029,-0.026,0.002,-0.005,100.0,102.0,101.0,13.3,1505.2,323.3,-0.7,1.8,2470.976,13.28,0.026,274.4
2022-10-24T01:13:03,42.805,6.029,-0.052,0.012,-0.036,100.0,103.0,100.0,13.3,1505.2,327.9,-0.8,1.8,2470.962,13.28,0.053,283.0
2022-10-24T01:16:03,42.805,6.029,-0.027,-0.006,-0.033,101.0,100.0,101.0,13.4,1505.2,327.9,-0.7,1.8,2470.95,13.29,0.027,257.5
2022-10-24T01:19:03,42.805,6.029,-0.046,-0.028,-0.044,103.0,99.0,99.0,13.4,1505.2,327.3,-0.7,1.8,2470.928,13.29,0.053,238.7
2022-10-24T01:22:03,42.805,6.029,-0.037,0.004,-0.019,101.0,101.0,100.0,13.4,1505.2,328.6,-0.8,1.8,2470.972,13.29,0.037,276.2
2022-10-24T01:25:03,42.805,6.029,-0.015,0.017,-0.015,101.0,102.0,101.0,13.4,1505.2,329.9,-0.7,1.8,2470.963,13.29,0.022,318.6
2022-10-24T01:28:03,42.805,6.029,-0.02,0.004,-0.01,100.0,103.0,99.0,13.4,1505.2,326.4,-0.8,1.8,2470.981,13.29,0.02,281.3
2022-10-24T01:31:03,42.805,6.029,-0.02,0.006,-0.007,101.0,103.0,101.0,13.4,1505.2,323.2,-0.8,1.8,2470.929,13.29,0.02,286.7
2022-10-24T01:34:03,42.805,6.029,-0.04,0.003,0.004,102.0,101.0,100.0,13.4,1505.2,324.2,-0.8,1.8,2470.914,13.29,0.04,274.3
2022-10-24T01:37:03,42.805,6.029,-0.022,0.026,-0.011,101.0,101.0,100.0,13.4,1505.2,317.5,-0.7,1.8,2470.915,13.29,0.034,319.8
2022-10-24T01:40:03,42.805,6.029,-0.017,0.01,-0.029,100.0,101.0,100.0,13.4,1505.2,332.1,-0.8,1.8,2470.897,13.29,0.019,300.5
2022-10-24T01:43:03,42.805,6.029,-0.05,0.015,-0.044,101.0,101.0,100.0,13.4,1505.2,327.3,-0.8,1.8,2470.929,13.29,0.052,286.7
2022-10-24T01:46:03,42.805,6.029,-0.039,0.007,-0.02,102.0,101.0,100.0,13.4,1505.2,326.1,-0.8,1.8,2470.923,13.29,0.039,280.2
2022-10-24T01:49:03,42.805,6.029,-0.027,0.004,-0.032,102.0,99.0,100.0,13.4,1505.2,329.6,-0.8,1.8,2470.952,13.29,0.027,278.4
2022-10-24T01:52:03,42.805,6.029,-0.043,-0.011,-0.052,101.0,101.0,100.0,13.4,1505.2,319.7,-0.7,1.8,2470.92,13.29,0.044,255.7
2022-10-24T01:55:03,42.805,6.029,-0.024,-0.017,-0.022,103.0,99.0,100.0,13.4,1505.2,323.1,-0.7,1.8,2470.923,13.29,0.029,234.7
2022-10-24T01:58:03,42.805,6.029,-0.048,0.007,-0.011,100.0,100.0,101.0,13.4,1505.2,333.1,-0.8,1.8,2470.95,13.29,0.048,278.3
2022-10-24T02:04:03,42.805,6.029,-0.03,0.006,-0.04,102.0,101.0,99.0,13.4,1505.2,327.0,-0.7,1.8,2471.009,13.28,0.03,281.3
2022-10-24T02:07:03,42.805,6.029,-0.031,0.005,-0.013,101.0,101.0,100.0,13.4,1505.2,320.2,-0.8,1.8,2470.95,13.28,0.031,279.2
2022-10-24T02:10:03,42.805,6.029,-0.015,-0.006,-0.035,102.0,100.0,100.0,13.4,1505.2,329.6,-0.8,1.8,2470.997,13.28,0.016,248.2
2022-10-24T02:13:03,42.805,6.029,-0.037,0.004,-0.038,101.0,101.0,100.0,13.4,1505.2,328.4,-0.7,1.8,2470.972,13.29,0.037,276.2
2022-10-24T02:16:03,42.805,6.029,-0.019,0.012,-0.028,101.0,100.0,100.0,13.4,1505.2,317.6,-0.8,1.8,2470.96,13.29,0.022,302.3
2022-10-24T02:19:03,42.805,6.029,-0.037,0.004,-0.021,100.0,101.0,101.0,13.4,1505.2,317.9,-0.8,1.8,2470.949,13.29,0.037,276.2
2022-10-24T02:22:03,42.805,6.029,-0.033,0.002,-0.009,101.0,101.0,100.0,13.4,1505.2,329.4,-0.8,1.8,2470.94,13.29,0.033,273.5
2022-10-24T02:25:03,42.805,6.029,-0.024,0.01,-0.024,102.0,102.0,100.0,13.4,1505.2,332.7,-0.8,1.8,2470.936,13.29,0.026,292.6
2022-10-24T02:28:03,42.805,6.029,-0.029,0.014,-0.008,101.0,102.0,99.0,13.4,1505.2,320.9,-0.8,1.8,2470.968,13.29,0.032,295.8
2022-10-24T02:31:03,42.805,6.029,-0.056,-0.004,-0.037,101.0,101.0,100.0,13.4,1505.2,320.5,-0.7,1.8,2470.953,13.29,0.056,265.9
2022-10-24T02:34:03,42.805,6.029,-0.028,-0.007,-0.026,100.0,101.0,101.0,13.3,1505.2,322.0,-0.8,1.8,2470.95,13.29,0.028,256.0
2022-10-24T02:37:03,42.805,6.029,-0.026,0.007,-0.013,100.0,101.0,100.0,13.3,1505.2,323.9,-0.8,1.8,2470.956,13.29,0.026,285.1
2022-10-24T02:40:03,42.805,6.029,-0.045,0.003,0.0,99.0,100.0,102.0,13.4,1505.2,324.1,-0.8,1.8,2470.931,13.29,0.045,273.8
2022-10-24T02:43:03,42.805,6.029,-0.054,0.004,-0.029,101.0,101.0,100.0,13.4,1505.2,323.5,-0.8,1.8,2470.923,13.29,0.054,274.2
2022-10-24T02:46:03,42.805,6.029,-0.024,0.021,-0.025,101.0,102.0,100.0,13.4,1505.2,327.6,-0.8,1.8,2470.945,13.29,0.031,311.2
2022-10-24T02:49:03,42.805,6.029,-0.019,-0.008,-0.028,102.0,101.0,99.0,13.4,1505.2,327.3,-0.8,1.8,2470.959,13.29,0.02,247.2
2022-10-24T02:52:03,42.805,6.029,-0.057,-0.003,-0.023,101.0,101.0,99.0,13.3,1505.2,316.2,-0.8,1.8,2470.977,13.29,0.057,267.0
2022-10-24T02:55:03,42.805,6.029,-0.043,0.013,-0.034,99.0,101.0,101.0,13.3,1505.2,332.1,-0.8,1.8,2471.021,13.29,0.044,286.8
2022-10-24T02:58:03,42.805,6.029,-0.052,0.007,-0.045,100.0,100.0,100.0,13.4,1505.2,321.1,-0.8,1.8,2470.952,13.29,0.052,277.7
2022-10-24T03:04:03,42.805,6.029,-0.055,0.033,-0.016,100.0,100.0,100.0,13.4,1505.2,331.5,-0.8,1.8,2471.014,13.28,0.064,301.0
2022-10-24T03:07:03,42.805,6.029,-0.024,0.015,-0.02,99.0,101.0,100.0,13.4,1505.2,329.6,-0.7,1.8,2470.999,13.28,0.028,302.0
2022-10-24T03:10:03,42.805,6.029,-0.055,0.01,-0.037,100.0,100.0,101.0,13.3,1505.2,324.3,-0.7,1.8,2471.017,13.28,0.055,280.3
2022-10-24T03:13:03,42.805,6.029,-0.048,0.029,-0.002,101.0,100.0,99.0,13.4,1505.2,325.9,-0.8,1.8,2471.052,13.28,0.056,301.1
2022-10-24T03:16:03,42.805,6.029,-0.057,0.004,-0.008,100.0,101.0,100.0,13.4,1505.2,321.4,-0.8,1.8,2470.99,13.29,0.057,274.0
2022-10-24T03:19:03,42.805,6.029,-0.04,0.012,-0.019,102.0,101.0,99.0,13.4,1505.2,324.3,-0.7,1.8,2471.021,13.29,0.041,286.7
2022-10-24T03:22:03,42.805,6.029,-0.037,-0.008,-0.06,101.0,101.0,99.0,13.3,1505.2,318.8,-0.8,1.8,2470.989,13.29,0.037,257.8
2022-10-24T03:25:03,42.805,6.029,-0.045,0.023,-0.033,100.0,100.0,101.0,13.3,1505.2,331.6,-0.8,1.8,2471.024,13.29,0.05,297.1
2022-10-24T03:28:03,42.805,6.029,-0.019,-0.015,-0.043,100.0,100.0,101.0,13.3,1505.2,334.0,-0.7,1.8,2471.001,13.29,0.024,231.7
2022-10-24T03:31:03,42.805,6.029,-0.029,-0.015,-0.04,101.0,100.0,100.0,13.4,1505.2,322.1,-0.7,1.8,2471.004,13.29,0.032,242.6
2022-10-24T03:34:03,42.805,6.029,-0.051,0.035,-0.033,99.0,101.0,100.0,13.4,1505.2,329.9,-0.8,1.8,2470.993,13.29,0.061,304.5
2022-10-24T03:37:03,42.805,6.029,-0.036,0.006,-0.012,99.0,103.0,100.0,13.4,1505.2,320.5,-0.7,1.8,2471.021,13.29,0.036,279.5
2022-10-24T03:40:03,42.805,6.029,-0.029,0.013,-0.003,100.0,101.0,99.0,13.4,1505.2,320.0,-0.8,1.8,2471.08,13.29,0.031,294.1
2022-10-24T03:43:03,42.805,6.029,-0.03,0.011,0.022,100.0,100.0,100.0,13.4,1505.2,331.3,-0.7,1.8,2471.023,13.29,0.031,290.1
2022-10-24T03:46:03,42.805,6.029,-0.047,0.01,-0.028,100.0,101.0,99.0,13.4,1505.2,328.2,-0.7,1.8,2471.003,13.29,0.048,282.0
2022-10-24T03:49:03,42.805,6.029,-0.044,0.008,-0.025,100.0,101.0,99.0,13.4,1505.2,324.1,-0.8,1.8,2471.05,13.29,0.044,280.3
2022-10-24T03:52:03,42.805,6.029,-0.044,-0.005,-0.053,101.0,100.0,100.0,13.4,1505.2,326.1,-0.7,1.8,2471.055,13.29,0.044,263.5
2022-10-24T03:55:03,42.805,6.029,-0.012,0.007,-0.013,101.0,99.0,100.0,13.3,1505.2,332.2,-0.8,1.8,2471.036,13.29,0.013,300.3
2022-10-24T03:58:03,42.805,6.029,-0.026,0.005,-0.028,101.0,100.0,99.0,13.4,1505.2,321.2,-0.7,1.8,2471.019,13.29,0.026,280.9
2022-10-24T04:04:03,42.805,6.029,-0.048,0.013,-0.039,101.0,101.0,100.0,13.3,1505.2,330.3,-0.8,1.8,2471.069,13.28,0.049,285.2
2022-10-24T04:07:03,42.805,6.029,-0.062,0.0,-0.015,100.0,101.0,101.0,13.4,1505.2,317.1,-0.7,1.8,2471.081,13.28,0.061,270.0
2022-10-24T04:10:03,42.805,6.029,-0.025,-0.01,-0.015,100.0,101.0,100.0,13.4,1505.2,326.1,-0.8,1.8,2471.088,13.28,0.026,248.2
2022-10-24T04:13:03,42.805,6.029,-0.028,0.006,-0.023,101.0,100.0,100.0,13.3,1505.2,330.0,-0.8,1.8,2471.099,13.29,0.028,282.1
2022-10-24T04:16:03,42.805,6.029,-0.044,0.018,-0.02,100.0,100.0,100.0,13.3,1505.2,326.1,-0.8,1.8,2471.061,13.29,0.047,292.2
2022-10-24T04:19:03,42.805,6.029,-0.042,0.0,-0.031,101.0,101.0,100.0,13.4,1505.2,320.6,-0.7,1.8,2471.083,13.29,0.042,270.0
2022-10-24T04:22:03,42.805,6.029,-0.039,0.012,0.006,100.0,101.0,100.0,13.4,1505.2,318.8,-0.8,1.8,2471.04,13.29,0.04,287.1
2022-10-24T04:25:03,42.805,6.029,-0.038,0.034,-0.02,100.0,100.0,99.0,13.4,1505.2,334.0,-0.8,1.8,2471.039,13.29,0.05,311.8
2022-10-24T04:28:03,42.805,6.029,-0.056,0.008,-0.06,100.0,100.0,99.0,13.4,1505.2,322.7,-0.8,1.8,2471.11,13.29,0.056,278.1
2022-10-24T04:31:03,42.805,6.029,-0.047,-0.007,-0.032,101.0,101.0,99.0,13.4,1505.2,317.1,-0.8,1.8,2471.057,13.29,0.047,261.5
2022-10-24T04:34:03,42.805,6.029,-0.021,0.018,0.0,101.0,100.0,100.0,13.4,1505.2,325.9,-0.8,1.8,2471.042,13.29,0.027,310.6
2022-10-24T04:37:03,42.805,6.029,-0.019,0.01,-0.034,100.0,101.0,99.0,13.4,1505.2,324.3,-0.7,1.9,2471.078,13.29,0.021,297.8
2022-10-24T04:40:03,42.805,6.029,-0.057,0.014,-0.034,101.0,101.0,100.0,13.4,1505.2,327.4,-0.8,1.8,2471.065,13.29,0.058,283.8
2022-10-24T04:43:03,42.805,6.029,-0.047,0.009,-0.043,100.0,100.0,100.0,13.4,1505.2,318.2,-0.8,1.8,2471.096,13.29,0.047,280.8
2022-10-24T04:46:03,42.805,6.029,-0.026,-0.017,-0.053,100.0,101.0,99.0,13.3,1505.2,318.0,-0.8,1.8,2471.052,13.29,0.031,236.8
2022-10-24T04:49:03,42.805,6.029,-0.037,0.014,-0.038,100.0,100.0,100.0,13.4,1505.2,332.4,-0.7,1.8,2471.09,13.29,0.039,290.7
2022-10-24T04:52:03,42.805,6.029,-0.042,0.01,-0.032,101.0,100.0,100.0,13.4,1505.2,329.8,-0.8,1.9,2471.097,13.29,0.043,283.4
2022-10-24T04:55:03,42.805,6.029,-0.046,0.007,-0.024,101.0,100.0,100.0,13.4,1505.2,327.3,-0.7,1.8,2471.119,13.29,0.046,278.7
2022-10-24T04:58:03,42.805,6.029,-0.056,0.005,-0.025,101.0,100.0,100.0,13.4,1505.2,317.6,-0.8,1.8,2471.074,13.29,0.056,275.1
2022-10-24T05:04:03,42.805,6.029,-0.031,0.0,-0.058,100.0,101.0,100.0,13.4,1505.2,321.2,-0.8,1.8,2471.128,13.28,0.03,270.0
2022-10-24T05:07:03,42.805,6.029,-0.027,0.016,-0.039,101.0,101.0,99.0,13.3,1505.2,329.0,-0.8,1.8,2471.13,13.28,0.031,300.7
2022-10-24T05:10:03,42.805,6.029,-0.042,0.021,-0.028,102.0,100.0,99.0,13.4,1505.2,326.1,-0.8,1.8,2471.132,13.28,0.046,296.6
2022-10-24T05:13:03,42.805,6.029,-0.031,0.003,-0.032,101.0,101.0,100.0,13.4,1505.2,335.3,-0.8,1.8,2471.152,13.29,0.031,275.5
2022-10-24T05:16:03,42.805,6.029,0.006,0.0,-0.021,100.0,100.0,101.0,13.4,1505.2,324.5,-0.8,1.8,2471.115,13.29,0.006,90.0
2022-10-24T05:19:03,42.805,6.029,-0.062,0.001,-0.036,101.0,101.0,99.0,13.4,1505.2,324.6,-0.8,1.8,2471.152,13.29,0.062,270.9
2022-10-24T05:22:03,42.805,6.029,-0.034,0.017,-0.024,101.0,101.0,100.0,13.4,1505.2,325.3,-0.8,1.8,2471.099,13.29,0.038,296.6
2022-10-24T05:25:03,42.805,6.029,-0.031,0.008,-0.035,101.0,100.0,100.0,13.4,1505.2,322.0,-0.8,1.8,2471.11,13.29,0.032,284.5
2022-10-24T05:28:03,42.805,6.029,-0.056,0.044,-0.014,100.0,102.0,99.0,13.4,1505.2,334.7,-0.8,1.8,2471.104,13.29,0.071,308.2
2022-10-24T05:31:03,42.805,6.029,-0.036,0.026,-0.03,102.0,100.0,100.0,13.3,1505.2,330.4,-0.8,1.8,2471.113,13.29,0.044,305.8
2022-10-24T05:34:03,42.805,6.029,-0.024,-0.008,-0.039,100.0,102.0,100.0,13.4,1505.2,333.1,-0.7,1.8,2471.139,13.29,0.025,251.6
2022-10-24T05:37:03,42.805,6.029,-0.047,-0.016,-0.065,101.0,100.0,100.0,13.3,1505.2,320.4,-0.7,1.8,2471.138,13.29,0.049,251.2
2022-10-24T05:40:03,42.805,6.029,-0.06,-0.002,-0.057,101.0,101.0,100.0,13.4,1505.2,317.5,-0.7,1.8,2471.109,13.29,0.06,268.1
2022-10-24T05:43:03,42.805,6.029,-0.041,0.012,-0.03,101.0,103.0,101.0,13.4,1505.2,324.3,-0.8,1.8,2471.108,13.29,0.042,286.3
2022-10-24T05:46:03,42.805,6.029,-0.037,0.015,-0.056,102.0,101.0,100.0,13.3,1505.2,323.1,-0.8,1.8,2471.176,13.29,0.039,292.1
2022-10-24T05:49:03,42.805,6.029,-0.03,0.005,-0.022,101.0,101.0,100.0,13.4,1505.2,323.7,-0.8,1.8,2471.107,13.29,0.03,279.5
2022-10-24T05:52:03,42.805,6.029,-0.048,0.008,-0.039,101.0,102.0,100.0,13.3,1505.2,334.7,-0.8,1.8,2471.139,13.29,0.048,279.5
2022-10-24T05:55:03,42.805,6.029,-0.03,0.012,-0.008,101.0,101.0,100.0,13.4,1505.2,324.1,-0.8,1.8,2471.145,13.29,0.032,291.8
2022-10-24T05:58:03,42.805,6.029,-0.036,0.012,-0.009,101.0,101.0,100.0,13.3,1505.2,329.8,-0.7,1.8,2471.122,13.29,0.037,288.4
2022-10-24T06:04:03,42.805,6.029,-0.043,0.011,-0.025,101.0,102.0,100.0,13.4,1505.2,326.3,-0.8,1.8,2471.132,13.28,0.044,284.3
2022-10-24T06:07:03,42.805,6.029,-0.027,0.012,-0.022,101.0,102.0,101.0,13.4,1505.2,329.2,-0.8,1.8,2471.152,13.28,0.029,294.0
2022-10-24T06:10:03,42.805,6.029,-0.047,0.024,-0.022,101.0,102.0,100.0,13.3,1505.2,333.7,-0.7,1.8,2471.122,13.29,0.052,297.0
2022-10-24T06:13:03,42.805,6.029,-0.039,0.005,-0.012,101.0,101.0,101.0,13.4,1505.2,327.9,-0.8,1.8,2471.124,13.29,0.039,277.3
2022-10-24T06:16:03,42.805,6.029,-0.046,0.007,-0.037,101.0,101.0,100.0,13.4,1505.2,325.4,-0.7,1.8,2471.149,13.29,0.046,278.7
2022-10-24T06:19:03,42.805,6.029,-0.026,0.015,-0.013,102.0,102.0,101.0,13.4,1505.2,335.0,-0.8,1.8,2471.1,13.29,0.03,300.0
2022-10-24T06:22:03,42.805,6.029,-0.025,0.027,-0.007,101.0,101.0,100.0,13.3,1505.2,329.8,-0.7,1.8,2471.137,13.29,0.036,317.2
2022-10-24T06:25:03,42.805,6.029,-0.041,-0.002,-0.019,101.0,101.0,100.0,13.3,1505.2,329.7,-0.7,1.8,2471.139,13.29,0.041,267.2
2022-10-24T06:28:03,42.805,6.029,-0.05,0.018,-0.037,101.0,101.0,100.0,13.4,1505.2,334.0,-0.8,1.8,2471.125,13.29,0.053,289.8
2022-10-24T06:31:03,42.805,6.029,-0.014,0.013,-0.013,102.0,102.0,100.0,13.4,1505.2,329.4,-0.7,1.8,2471.124,13.29,0.019,312.9
2022-10-24T06:34:03,42.805,6.029,-0.045,0.009,-0.026,102.0,101.0,99.0,13.4,1505.2,328.6,-0.8,1.8,2471.106,13.29,0.045,281.3
2022-10-24T06:37:03,42.805,6.029,-0.058,0.001,-0.041,102.0,100.0,100.0,13.3,1505.2,326.4,-0.8,1.8,2471.13,13.29,0.058,271.0
2022-10-24T06:40:03,42.805,6.029,-0.027,0.023,-0.005,102.0,102.0,100.0,13.3,1505.2,326.5,-0.8,1.8,2471.115,13.29,0.035,310.4
2022-10-24T06:43:03,42.805,6.029,-0.064,0.017,-0.042,101.0,100.0,101.0,13.4,1505.2,324.9,-0.8,1.8,2471.112,13.29,0.066,284.9
2022-10-24T06:46:03,42.805,6.029,-0.042,0.034,-0.018,101.0,101.0,100.0,13.4,1505.2,323.5,-0.7,1.8,2471.122,13.29,0.054,309.0
2022-10-24T06:49:03,42.805,6.029,-0.049,0.004,-0.007,101.0,102.0,100.0,13.4,1505.2,326.4,-0.8,1.8,2471.111,13.29,0.049,274.7
2022-10-24T06:52:03,42.805,6.029,-0.036,-0.007,-0.013,101.0,103.0,100.0,13.4,1505.2,322.2,-0.8,1.8,2471.12,13.29,0.036,259.0
2022-10-24T06:55:03,42.805,6.029,-0.052,0.007,-0.006,101.0,102.0,100.0,13.4,1505.2,330.4,-0.8,1.8,2471.128,13.29,0.052,277.7
2022-10-24T06:58:03,42.805,6.029,-0.048,0.005,0.0,101.0,101.0,100.0,13.3,1505.2,320.9,-0.7,1.8,2471.142,13.29,0.048,275.9
2022-10-24T07:04:03,42.805,6.029,-0.035,0.014,-0.052,102.0,102.0,101.0,13.3,1505.2,333.4,-0.8,1.8,2471.168,13.28,0.037,291.8
2022-10-24T07:07:03,42.805,6.029,-0.038,0.01,-0.033,101.0,101.0,101.0,13.4,1505.2,323.0,-0.7,1.8,2471.147,13.28,0.039,284.7
2022-10-24T07:10:03,42.805,6.029,-0.053,0.024,-0.018,101.0,101.0,100.0,13.4,1505.2,332.1,-0.8,1.8,2471.139,13.29,0.058,294.4
2022-10-24T07:13:03,42.805,6.029,-0.03,0.006,-0.027,101.0,101.0,100.0,13.3,1505.2,321.3,-0.8,1.8,2471.106,13.29,0.03,281.3
2022-10-24T07:16:03,42.805,6.029,-0.041,0.022,-0.039,101.0,101.0,100.0,13.4,1505.2,330.0,-0.8,1.8,2471.133,13.29,0.046,298.2
2022-10-24T07:19:03,42.805,6.029,-0.05,0.017,-0.031,101.0,102.0,100.0,13.4,1505.2,316.2,-0.8,1.8,2471.115,13.29,0.052,288.8
2022-10-24T07:22:03,42.805,6.029,-0.04,0.005,-0.039,102.0,101.0,100.0,13.3,1505.2,327.4,-0.7,1.8,2471.139,13.29,0.04,277.1
2022-10-24T07:25:03,42.805,6.029,-0.029,0.0,-0.065,102.0,102.0,100.0,13.4,1505.2,324.1,-0.8,1.8,2471.108,13.29,0.028,270.0
2022-10-24T07:28:03,42.805,6.029,-0.035,0.011,-0.032,99.0,100.0,101.0,13.4,1505.2,322.5,-0.8,1.8,2471.141,13.29,0.036,287.4
2022-10-24T07:31:03,42.805,6.029,-0.061,0.005,-0.037,100.0,101.0,100.0,13.4,1505.2,319.4,-0.7,1.9,2471.122,13.29,0.061,274.7
2022-10-24T07:34:03,42.805,6.029,-0.025,0.028,-0.009,101.0,101.0,100.0,13.4,1505.2,318.1,-0.7,1.8,2471.134,13.29,0.037,318.2
2022-10-24T07:37:03,42.805,6.029,-0.043,0.025,-0.014,101.0,102.0,100.0,13.3,1505.2,326.8,-0.8,1.8,2471.101,13.29,0.049,300.2
2022-10-24T07:40:03,42.805,6.029,-0.055,0.014,-0.075,99.0,102.0,101.0,13.4,1505.2,330.7,-0.8,1.8,2471.091,13.29,0.056,284.3
2022-10-24T07:43:03,42.805,6.029,-0.039,0.01,-0.041,101.0,100.0,100.0,13.4,1505.2,325.1,-0.8,1.8,2471.129,13.29,0.04,284.4
2022-10-24T07:46:03,42.805,6.029,-0.038,0.015,-0.05,100.0,101.0,100.0,13.4,1505.2,323.9,-0.8,1.8,2471.111,13.29,0.04,291.5
2022-10-24T07:49:03,42.805,6.029,0.005,0.024,0.013,101.0,101.0,100.0,13.4,1505.2,328.0,-0.8,1.8,2471.111,13.29,0.024,11.8
2022-10-24T07:52:03,42.805,6.029,-0.057,0.039,-0.008,101.0,100.0,100.0,13.3,1505.2,331.6,-0.8,1.8,2471.114,13.29,0.069,304.4
2022-10-24T07:55:03,42.805,6.029,-0.052,0.028,-0.026,102.0,101.0,100.0,13.4,1505.2,329.1,-0.7,1.8,2471.089,13.29,0.059,298.3
2022-10-24T07:58:03,42.805,6.029,-0.02,0.016,0.0,102.0,102.0,100.0,13.4,1505.2,326.9,-0.8,1.8,2471.098,13.29,0.025,308.7
2022-10-24T08:04:03,42.805,6.029,-0.003,0.004,-0.029,101.0,101.0,99.0,13.4,1505.2,321.3,-0.8,1.8,2471.122,13.28,0.005,323.1
2022-10-24T08:07:03,42.805,6.029,-0.059,0.037,-0.013,101.0,101.0,100.0,13.4,1505.2,332.2,-0.8,1.8,2471.154,13.28,0.069,302.1
2022-10-24T08:10:03,42.805,6.029,-0.029,0.014,-0.025,102.0,99.0,100.0,13.4,1505.2,323.1,-0.8,1.8,2471.086,13.28,0.032,295.8
2022-10-24T08:13:03,42.805,6.029,-0.064,0.01,-0.022,100.0,102.0,99.0,13.4,1505.2,322.1,-0.8,1.8,2471.126,13.29,0.064,278.9
2022-10-24T08:16:03,42.805,6.029,-0.052,0.023,-0.018,101.0,102.0,101.0,13.4,1505.2,325.3,-0.8,1.8,2471.08,13.29,0.056,293.9
2022-10-24T08:19:03,42.805,6.029,-0.053,0.008,-0.014,101.0,101.0,100.0,13.4,1505.2,320.1,-0.8,1.8,2471.086,13.29,0.053,278.6
2022-10-24T08:22:03,42.805,6.029,-0.041,0.0,-0.051,101.0,101.0,100.0,13.4,1505.2,331.5,-0.8,1.8,2471.084,13.29,0.041,270.0
2022-10-24T08:25:03,42.805,6.029,-0.054,0.017,-0.045,102.0,100.0,101.0,13.4,1505.2,329.4,-0.8,1.8,2471.035,13.29,0.056,287.5
2022-10-24T08:28:03,42.805,6.029,-0.038,0.015,-0.022,101.0,101.0,100.0,13.3,1505.2,326.1,-0.7,1.8,2471.097,13.29,0.04,291.5
2022-10-24T08:31:03,42.805,6.029,-0.053,0.014,-0.054,102.0,101.0,100.0,13.4,1505.2,330.4,-0.8,1.8,2471.075,13.29,0.054,284.8
2022-10-24T08:34:03,42.805,6.029,-0.031,0.01,-0.014,101.0,101.0,100.0,13.3,1505.2,324.1,-0.8,1.8,2471.073,13.29,0.032,287.9
2022-10-24T08:37:03,42.805,6.029,-0.028,0.001,-0.012,101.0,100.0,101.0,13.3,1505.2,320.8,-0.8,1.8,2471.082,13.29,0.028,272.0
2022-10-24T08:40:03,42.805,6.029,-0.026,0.016,-0.011,99.0,100.0,101.0,13.4,1505.2,330.6,-0.8,1.8,2471.055,13.29,0.03,301.6
2022-10-24T08:43:03,42.805,6.029,-0.046,-0.013,-0.04,101.0,101.0,99.0,13.4,1505.2,323.5,-0.8,1.8,2471.098,13.29,0.047,254.2
2022-10-24T08:46:03,42.805,6.029,-0.031,0.002,-0.034,101.0,101.0,100.0,13.3,1505.2,315.8,-0.8,1.9,2471.028,13.29,0.031,273.7
2022-10-24T08:49:03,42.805,6.029,-0.042,0.035,-0.012,100.0,101.0,100.0,13.4,1505.2,331.3,-0.8,1.8,2471.062,13.29,0.054,309.8
2022-10-24T08:52:03,42.805,6.029,-0.025,0.015,-0.008,101.0,102.0,99.0,13.4,1505.2,326.1,-0.8,1.8,2471.059,13.29,0.029,301.0
2022-10-24T08:55:03,42.805,6.029,-0.039,0.001,-0.074,101.0,101.0,100.0,13.4,1505.2,330.6,-0.7,1.9,2471.082,13.29,0.039,271.5
2022-10-24T08:58:03,42.805,6.029,-0.026,0.022,0.01,101.0,101.0,100.0,13.3,1505.2,315.8,-0.8,1.8,2471.083,13.29,0.034,310.2
2022-10-24T09:04:03,42.805,6.029,-0.071,0.029,-0.069,101.0,100.0,99.0,13.4,1505.2,334.3,-0.8,1.8,2471.07,13.28,0.076,292.2
2022-10-24T09:07:03,42.805,6.029,-0.064,0.023,-0.056,101.0,101.0,99.0,13.4,1505.2,332.7,-0.8,1.8,2471.097,13.28,0.068,289.8
2022-10-24T09:10:03,42.805,6.029,-0.033,0.026,0.0,102.0,102.0,99.0,13.4,1505.2,326.4,-0.8,1.9,2471.091,13.29,0.042,308.2
2022-10-24T09:13:03,42.805,6.029,-0.057,0.009,-0.052,101.0,101.0,101.0,13.4,1505.2,329.9,-0.7,1.8,2471.09,13.29,0.057,279.0
2022-10-24T09:16:03,42.805,6.029,-0.026,0.016,-0.024,103.0,101.0,100.0,13.4,1505.2,322.2,-0.7,1.8,2471.052,13.29,0.03,301.6
2022-10-24T09:19:03,42.805,6.029,-0.038,0.018,-0.028,101.0,103.0,101.0,13.4,1505.2,322.8,-0.8,1.8,2471.046,13.29,0.042,295.3
2022-10-24T09:22:03,42.805,6.029,-0.034,0.012,-0.03,102.0,101.0,100.0,13.3,1505.2,318.3,-0.8,1.8,2471.071,13.29,0.036,289.4
2022-10-24T09:25:03,42.805,6.029,-0.031,0.029,-0.034,101.0,101.0,100.0,13.3,1505.2,325.1,-0.8,1.8,2471.017,13.29,0.042,313.1
2022-10-24T09:28:03,42.805,6.029,-0.035,0.042,-0.044,102.0,100.0,102.0,13.4,1505.2,332.8,-0.8,1.8,2471.025,13.29,0.054,320.2
2022-10-24T09:31:03,42.805,6.029,-0.014,0.013,-0.001,101.0,100.0,100.0,13.4,1505.2,326.5,-0.8,1.8,2471.059,13.29,0.019,312.9
2022-10-24T09:34:03,42.805,6.029,-0.013,0.022,-0.038,101.0,102.0,100.0,13.4,1505.2,329.8,-0.8,1.8,2471.002,13.29,0.025,329.4
2022-10-24T09:37:03,42.805,6.029,-0.022,0.002,-0.017,101.0,101.0,100.0,13.3,1505.2,316.2,-0.8,1.8,2471.044,13.29,0.022,275.2
2022-10-24T09:40:03,42.805,6.029,-0.037,0.027,-0.021,101.0,100.0,100.0,13.4,1505.2,328.3,-0.7,1.8,2471.018,13.29,0.045,306.1
2022-10-24T09:43:03,42.805,6.029,-0.025,0.008,-0.011,101.0,101.0,100.0,13.3,1505.2,327.1,-0.8,1.8,2471.013,13.29,0.026,287.7
2022-10-24T09:46:03,42.805,6.029,-0.036,0.013,-0.035,101.0,101.0,100.0,13.4,1505.2,325.9,-0.7,1.8,2471.048,13.29,0.038,289.9
2022-10-24T09:49:03,42.805,6.029,-0.021,0.014,-0.016,101.0,101.0,100.0,13.4,1505.2,327.5,-0.8,1.8,2471.009,13.29,0.025,303.7
2022-10-24T09:52:03,42.805,6.029,0.001,-0.019,-0.047,101.0,101.0,100.0,13.4,1505.2,321.5,-0.7,1.8,2471.027,13.29,0.019,177.0
2022-10-24T09:55:03,42.805,6.029,-0.029,0.001,-0.054,101.0,100.0,100.0,13.3,1505.2,332.8,-0.7,1.8,2471.007,13.29,0.029,272.0